Temperature
9 9 9 9 9 9 9 9 9 9 10 10 10 10 11 11 11 11 11 11 11 11 11 11 11 11 11 11 11 11 11 10 10 8 8 8 8 7 7 7 7 7 7
8 8 8 8 8 8 8 9 9 9 9 9 9 9 10 10 10 10 10 10 10 10 10 11 11 10 11 11 10 10 10 10 10 8 7 7 7 7 7 7 7 7 7
8 8 8 8 8 8 8 8 8 8 8 9 9 9 9 9 9 9 10 10 10 10 10 10 10 10 10 10 10 10 10 9 9 8 7 7 7 7 7 7 7 7 7
8 7 7 7 7 7 7 7 8 8 8 8 8 8 8 8 8 9 9 9 9 9 9 9 9 10 10 10 9 9 9 9 8 8 7 7 7 7 7 7 7 7 7
7 7 7 7 7 7 7 7 7 7 7 7 8 8 8 8 8 8 8 8 9 9 9 9 9 9 9 9 9 9 9 9 8 8 8 7 7 7 7 8 8 7 7
7 7 7 7 7 7 7 7 7 7 7 7 7 7 7 7 8 8 8 8 8 8 8 8 8 8 8 9 9 9 9 9 8 8 8 8 7 8 8 8 8 8 7
7 7 7 7 7 7 7 6 6 6 6 6 7 7 7 7 7 7 7 7 8 8 8 8 8 8 8 8 8 8 8 8 8 8 8 8 8 8 8 8 8 8 8
7 7 7 6 6 6 6 6 6 6 6 6 6 6 7 7 7 7 7 7 7 7 7 7 7 7 8 8 8 8 8 8 8 8 8 8 8 8 8 8 8 8 8
7 7 6 6 6 6 6 6 6 6 6 6 6 6 6 7 7 7 7 7 7 7 7 7 7 7 7 7 8 8 8 8 8 8 8 8 8 8 8 8 8 8 8
7 6 6 6 6 6 6 6 6 6 6 6 6 6 6 6 7 7 7 7 7 7 7 7 7 7 7 7 7 7 7 7 8 8 8 8 8 8 8 8 8 8 8
7 6 6 6 6 6 6 6 6 6 6 6 6 6 6 6 7 7 7 7 7 7 7 7 7 7 7 7 7 7 7 7 8 8 8 8 8 8 8 8 8 8 8
6 6 6 6 6 6 6 6 6 6 6 6 6 6 6 6 6 7 7 7 7 7 7 7 7 7 7 7 7 7 8 8 8 8 8 8 8 8 8 8 8 8 8
6 6 6 6 6 6 6 6 6 6 7 6 6 6 6 6 6 6 7 7 7 7 7 7 7 7 7 7 7 8 8 8 8 8 8 8 8 8 8 8 8 8 8
6 6 6 6 6 6 6 6 6 6 7 6 6 6 6 6 6 6 6 6 7 7 7 7 7 7 7 7 8 8 8 8 8 8 8 8 8 8 8 8 8 8 8
6 6 6 6 6 6 6 6 6 7 6 6 6 6 6 6 6 6 6 6 6 7 7 7 7 7 7 7 8 8 8 8 8 8 8 8 8 8 8 8 8 8 8
6 6 6 6 6 6 6 6 6 6 6 6 6 6 6 6 6 6 6 7 7 7 7 7 8 8 8 8 8 8 8 8 8 8 8 8 8 8 8 8 8 8 8
6 6 6 7 6 6 6 6 6 6 6 6 6 6 6 6 6 6 7 7 7 7 8 8 8 8 8 8 8 8 8 8 8 8 8 8 8 8 8 8 8 8 8
7 7 7 7 7 7 7 7 7 6 6 6 6 6 6 6 6 7 7 7 7 8 8 8 8 8 8 8 8 8 8 8 8 8 8 8 8 8 8 8 8 8 8
7 7 7 7 7 7 7 7 7 7 7 7 7 7 7 7 7 7 7 7 8 8 8 8 8 8 8 8 8 8 7 7 7 7 7 8 8 8 8 8 8 8 8
7 7 7 7 8 8 8 8 8 8 8 7 7 7 7 7 7 7 7 8 8 8 8 8 8 8 8 8 8 8 8 8 8 8 8 8 8 8 8 8 8 8 8
7 7 7 8 8 8 8 8 8 8 8 8 8 8 8 8 8 8 8 8 8 8 8 8 8 8 8 8 8 8 8 8 8 7 7 7 7 8 8 8 8 8 8
8 8 8 8 8 8 8 8 9 9 9 9 8 8 8 8 8 8 8 8 8 7 7 7 8 8 7 7 7 7 7 7 7 7 7 7 7 7 7 8 8 8 8
8 8 9 9 9 9 9 9 9 9 9 9 9 9 8 8 8 8 8 8 8 7 7 7 7 7 7 7 7 7 7 7 7 7 6 6 7 7 7 7 8 8 8
9 9 9 9 9 9 9 9 9 9 9 9 9 9 9 9 9 9 8 8 8 8 7 7 7 7 7 7 7 7 7 7 7 6 6 6 6 7 7 7 7 7 8
9 9 9 9 9 9 9 10 10 10 10 10 10 10 9 9 9 9 9 8 8 8 8 7 7 7 7 7 7 7 7 7 7 7 7 7 7 7 7 7 7 7 7
9 10 10 10 9 10 10 10 10 10 10 10 10 10 10 10 9 9 9 9 8 8 8 8 8 7 7 7 7 7 7 7 7 7 7 7 7 7 7 7 7 7 7
Wind_Speed
8 7 7 7 7 7 7 7 7 7 7 7 7 6 7 7 6 5 4 4 4 3 3 4 4 4 4 4 6 6 6 7 10 6 5 6 6 6 9 10 12 12 11
7 7 7 7 7 7 7 7 6 7 7 7 7 7 7 7 6 6 6 6 5 4 4 5 5 5 6 5 6 7 7 8 11 12 7 6 6 7 7 7 10 11 12
7 7 7 7 7 7 6 6 6 7 7 7 7 8 8 7 7 7 7 6 6 6 5 6 6 6 7 6 7 8 8 9 9 11 9 7 5 6 6 5 8 8 11
6 7 7 6 6 6 6 6 6 7 8 8 8 8 9 10 9 8 8 8 8 8 8 8 7 7 6 8 8 9 9 10 10 10 9 7 6 6 5 4 4 3 4
6 6 6 5 6 6 7 7 7 8 9 9 9 10 9 9 9 8 8 9 9 10 10 11 11 13 13 10 9 9 9 8 8 8 8 7 6 5 4 4 5 4 3
6 6 6 6 6 6 6 7 7 8 9 10 10 10 11 11 14 14 9 8 9 9 10 10 11 12 15 16 16 13 10 9 7 7 7 7 6 4 2 2 3 3 2
5 6 5 5 6 6 7 7 8 8 9 9 9 10 11 13 17 16 13 9 9 9 9 8 11 12 11 10 13 14 13 12 10 7 8 6 5 3 2 2 3 2 2
5 6 5 6 6 6 7 7 7 7 7 7 8 8 9 12 15 14 12 9 10 10 11 11 11 10 10 9 10 11 11 10 9 8 7 6 5 4 3 2 2 2 1
6 5 5 6 6 6 6 7 6 6 6 7 7 8 9 11 15 14 10 8 9 11 11 12 11 11 13 12 10 10 9 7 13 15 13 10 9 7 5 3 1 1 1
5 5 5 6 6 6 6 5 5 5 6 7 8 8 9 9 14 15 10 6 7 8 8 10 14 12 13 12 8 8 8 6 6 6 5 4 3 3 2 2 2 1 1
6 6 6 6 6 5 4 4 4 5 6 7 7 7 8 9 11 15 14 7 5 6 7 7 7 12 13 13 10 7 5 3 2 3 2 3 2 1 1 2 4 3 3
6 6 6 5 5 6 4 4 5 5 6 6 6 6 6 7 9 11 14 14 10 8 7 6 6 9 10 9 6 6 6 4 0 2 3 3 2 2 2 3 3 3 1
7 6 5 5 5 5 3 3 3 3 4 5 5 5 5 4 5 9 11 13 13 7 6 6 5 5 4 3 4 6 5 2 2 4 4 3 2 2 1 0 1 3 4
7 6 5 5 5 4 4 4 5 5 4 4 5 5 5 6 6 5 4 4 5 5 3 3 3 2 2 2 2 2 2 3 4 3 2 2 1 0 1 1 1 2 2
6 6 5 5 6 6 7 7 8 7 6 6 5 5 5 6 4 6 6 5 5 5 3 1 2 1 1 1 1 2 2 3 3 3 2 2 1 1 1 0 1 2 2
5 5 4 5 4 6 7 8 12 9 11 13 11 8 6 7 5 7 8 8 8 8 4 1 1 2 2 3 2 2 2 3 3 2 2 2 3 2 2 2 2 2 2
5 4 4 4 4 4 6 6 6 5 8 9 9 9 7 5 5 6 8 11 10 7 3 1 2 2 2 2 2 2 3 3 2 2 2 2 2 3 3 2 3 2 3
5 5 4 4 4 4 4 5 6 6 5 3 3 3 3 2 3 5 7 7 4 2 1 1 2 2 2 2 3 3 2 2 2 2 2 2 3 3 3 3 3 3 3
4 4 3 3 3 4 3 4 5 5 5 6 5 3 3 3 4 6 5 4 4 1 2 2 2 2 2 2 2 2 1 1 1 1 2 2 2 3 3 3 3 4 4
4 4 2 3 3 3 3 3 4 5 5 5 5 5 5 5 4 3 3 3 2 2 3 2 2 2 2 1 0 1 1 1 1 2 1 1 2 3 4 4 4 4 4
6 5 4 3 3 4 3 3 3 3 4 5 4 4 2 3 3 3 2 1 1 2 2 2 1 1 0 0 1 2 2 1 1 2 3 3 3 3 4 4 4 5 5
6 7 6 4 4 4 3 3 3 3 4 5 5 5 4 4 2 2 2 2 2 1 1 2 3 1 1 2 3 3 3 3 3 4 4 5 4 4 4 4 4 4 5
5 5 5 4 4 4 4 3 3 3 3 4 5 5 5 3 2 2 2 2 2 1 1 1 2 2 4 4 2 3 2 4 4 5 4 5 5 5 5 5 6 7 6
5 5 5 5 4 5 5 4 4 4 3 3 4 4 4 3 2 2 2 2 2 2 3 2 2 0 1 1 2 1 4 5 4 6 7 6 7 6 6 6 6 7 7
5 5 5 5 5 5 5 5 4 4 4 4 4 4 4 4 4 4 3 3 3 3 4 4 4 4 3 3 2 4 5 2 1 3 5 7 7 7 7 8 7 7 7
6 6 5 5 5 5 5 5 5 5 4 4 4 4 3 4 4 4 4 4 4 5 5 6 6 6 5 4 4 6 6 4 4 4 5 7 7 7 8 7 9 9 9
Wind_Direction
50 46 46 43 40 42 42 37 31 24 22 26 26 30 35 33 31 34 38 39 45 51 72 92 96 102 112 120 123 125 122 120 127 128 133 143 141 139 150 160 159 156 158
55 50 49 47 43 43 41 36 32 30 27 29 33 39 44 41 36 37 39 41 44 56 72 87 96 105 110 118 123 128 129 127 132 133 138 143 150 149 163 171 170 170 168
60 56 50 49 46 43 42 38 34 34 35 37 39 41 40 41 42 45 50 52 56 60 68 80 86 93 100 105 113 118 121 123 123 130 137 143 151 161 167 182 171 163 172
64 62 54 49 46 46 45 44 42 43 44 43 44 43 43 39 37 45 59 61 64 65 67 71 74 82 95 105 107 108 115 118 124 130 139 147 150 164 169 172 160 180 173
67 67 63 53 52 52 49 46 45 47 54 50 50 47 45 42 33 40 61 73 75 76 75 76 77 80 80 89 100 105 115 121 129 135 137 140 146 157 173 178 163 170 177
72 68 68 66 65 63 61 59 58 57 56 55 53 53 49 41 26 34 50 67 75 82 88 90 87 84 85 86 90 92 98 109 118 124 128 133 134 138 144 161 144 147 166
78 73 70 72 74 69 69 67 66 64 63 62 58 56 51 32 27 30 40 62 67 69 74 79 86 81 76 88 90 85 77 76 88 101 106 112 112 109 110 103 100 123 144
85 77 73 78 78 71 66 63 64 66 68 68 63 58 54 36 26 28 40 63 63 63 63 67 73 67 62 68 87 85 76 66 72 80 84 85 83 61 50 79 126 129 129
87 77 74 80 85 80 72 69 68 71 72 73 68 61 55 38 28 31 43 72 69 65 63 59 63 62 49 62 83 91 90 85 82 87 91 93 90 78 51 27 40 83 138
92 86 81 83 83 82 78 74 79 81 82 79 71 62 58 49 35 34 39 77 86 86 80 68 58 57 53 59 69 80 82 81 92 100 95 103 115 99 65 37 10 37 97
94 89 83 86 92 90 85 79 82 84 86 85 82 71 61 52 44 40 39 46 68 88 85 72 54 51 55 57 64 71 74 63 96 126 138 140 138 134 129 75 50 55 62
99 96 91 85 90 93 90 87 88 94 97 94 94 86 71 58 47 43 44 47 55 67 73 75 66 54 52 50 55 41 28 4 31 115 110 103 105 99 82 81 65 54 89
107 103 96 86 78 77 80 89 90 89 95 102 101 96 89 81 61 48 51 55 57 65 74 80 76 57 37 46 45 18 2 6 71 76 78 85 103 114 110 142 247 258 260
120 119 113 103 97 83 62 57 57 59 64 76 84 88 86 67 47 31 45 68 77 74 84 93 78 51 16 20 22 15 36 52 57 69 71 63 53 137 220 218 231 246 252
124 123 121 114 104 86 67 52 63 52 53 64 60 63 75 75 44 33 36 31 29 27 342 241 197 179 148 112 79 67 68 69 58 42 35 26 28 24 0 332 288 291 289
123 127 121 120 125 119 108 84 56 67 66 67 65 75 76 83 74 42 33 18 9 3 352 312 126 115 105 98 91 82 75 63 44 31 23 22 17 2 342 322 310 322 327
119 117 128 134 135 130 127 124 115 81 63 65 67 73 84 84 47 22 9 351 335 338 330 341 75 70 66 69 80 71 78 81 40 9 10 15 358 333 329 335 342 342 327
128 124 137 145 148 144 144 146 147 144 139 127 95 91 92 61 3 348 347 339 302 263 266 65 84 84 69 56 60 57 51 62 46 11 5 359 343 329 328 331 332 336 323
140 135 145 145 150 147 152 144 144 152 152 148 150 164 212 246 283 292 307 287 295 2 66 60 53 59 66 69 73 77 33 33 56 336 317 320 323 319 327 330 325 315 297
131 121 145 162 154 156 161 159 158 160 153 153 166 162 175 203 222 226 237 265 303 45 51 54 54 41 32 4 235 196 217 212 229 268 292 319 321 320 321 319 316 312 305
160 160 197 206 175 174 172 168 168 169 159 160 147 129 159 223 207 198 189 191 34 47 50 9 267 194 204 277 10 14 344 326 6 5 352 339 328 318 309 302 298 301 304
167 170 188 186 170 173 182 190 191 181 168 157 148 162 198 256 237 171 150 132 119 116 91 347 329 356 54 32 23 343 333 2 24 28 360 337 326 314 308 306 308 311 310
178 178 179 171 162 157 201 206 192 192 182 166 166 170 188 218 203 155 139 133 129 116 125 207 285 335 66 66 10 324 349 32 27 18 343 321 321 319 312 312 311 309 307
183 184 177 168 182 191 198 197 196 197 184 178 182 180 181 189 208 171 157 151 160 178 200 209 241 314 59 271 274 335 63 60 29 358 350 329 315 308 312 313 309 312 317
194 188 186 188 199 203 204 204 201 202 200 196 198 198 190 191 195 186 178 177 187 208 209 213 225 232 227 231 214 135 125 111 25 329 321 307 302 303 304 305 307 310 310
207 195 197 195 202 211 215 213 207 208 211 206 203 205 207 208 199 184 180 185 200 203 206 213 216 224 227 220 205 174 176 201 238 269 285 291 292 294 302 303 304 304 301
Height
1520 1519 1518 1517 1516 1516 1515 1514 1513 1512 1511 1511 1510 1509 1508 1508 1508 1508 1507 1507 1507 1507 1507 1508 1509 1510 1511 1513 1516 1518 1521 1524 1527 1534 1539 1543 1547 1550 1553 1555 1558 1561 1563
1521 1521 1520 1519 1518 1518 1517 1516 1515 1514 1513 1512 1512 1511 1510 1510 1509 1509 1508 1507 1507 1507 1507 1508 1509 1510 1511 1513 1516 1518 1521 1525 1528 1532 1539 1544 1548 1551 1554 1557 1559 1562 1564
1523 1522 1522 1521 1520 1520 1519 1518 1517 1517 1516 1515 1514 1513 1513 1512 1511 1510 1509 1509 1508 1508 1509 1509 1510 1511 1512 1514 1517 1519 1522 1526 1530 1533 1539 1544 1549 1553 1556 1558 1561 1563 1565
1525 1524 1524 1523 1523 1522 1521 1521 1520 1519 1518 1518 1517 1516 1515 1514 1514 1513 1512 1511 1510 1510 1510 1511 1512 1513 1514 1516 1519 1521 1525 1528 1532 1536 1541 1546 1550 1554 1557 1559 1562 1564 1566
1527 1527 1526 1525 1525 1524 1524 1523 1522 1522 1521 1520 1520 1519 1518 1518 1517 1516 1515 1514 1513 1513 1514 1514 1515 1517 1518 1520 1522 1524 1528 1531 1535 1539 1544 1548 1552 1554 1557 1560 1562 1564 1566
1529 1528 1528 1528 1527 1527 1526 1525 1525 1524 1524 1523 1522 1522 1521 1521 1521 1520 1519 1519 1518 1518 1518 1519 1520 1521 1523 1524 1526 1529 1532 1535 1538 1542 1546 1550 1553 1556 1558 1560 1562 1564 1566
1531 1530 1530 1530 1530 1529 1529 1528 1528 1527 1526 1526 1526 1525 1525 1525 1525 1525 1524 1524 1523 1523 1523 1524 1525 1527 1528 1530 1532 1534 1537 1540 1543 1546 1548 1551 1554 1557 1559 1561 1563 1565 1566
1533 1533 1533 1532 1532 1532 1531 1531 1531 1531 1530 1530 1530 1530 1530 1530 1530 1529 1529 1529 1528 1528 1529 1530 1531 1532 1534 1535 1537 1539 1542 1545 1547 1550 1551 1554 1557 1559 1561 1563 1564 1565 1566
1535 1535 1535 1535 1534 1534 1534 1534 1534 1534 1534 1534 1534 1534 1534 1535 1535 1534 1534 1534 1534 1534 1535 1535 1536 1537 1539 1541 1542 1544 1546 1549 1551 1553 1555 1557 1559 1561 1562 1564 1565 1566 1567
1537 1537 1537 1537 1537 1537 1538 1538 1538 1538 1538 1538 1538 1539 1539 1539 1539 1539 1539 1539 1539 1539 1540 1541 1542 1543 1544 1546 1547 1548 1550 1553 1555 1557 1558 1560 1561 1563 1564 1565 1565 1566 1567
1539 1539 1540 1540 1540 1541 1541 1541 1541 1542 1542 1542 1542 1543 1543 1543 1544 1544 1543 1543 1544 1544 1545 1546 1547 1548 1549 1550 1551 1552 1555 1556 1558 1559 1561 1562 1563 1564 1565 1566 1566 1566 1567
1540 1541 1542 1543 1543 1544 1544 1544 1545 1545 1545 1546 1546 1547 1547 1547 1548 1548 1548 1548 1548 1549 1549 1550 1551 1552 1553 1554 1555 1557 1558 1559 1561 1562 1563 1564 1565 1566 1566 1567 1567 1567 1567
1542 1543 1544 1545 1546 1546 1547 1547 1548 1548 1549 1550 1550 1550 1551 1551 1552 1552 1552 1552 1553 1553 1553 1554 1555 1556 1557 1558 1559 1560 1561 1562 1563 1564 1565 1566 1567 1567 1567 1567 1567 1567 1567
1544 1545 1546 1547 1548 1549 1550 1550 1551 1551 1552 1553 1553 1554 1554 1555 1555 1555 1556 1556 1557 1557 1558 1559 1559 1560 1561 1562 1563 1563 1564 1565 1566 1566 1567 1567 1568 1568 1568 1568 1568 1567 1567
1546 1547 1549 1550 1551 1552 1552 1552 1553 1554 1554 1555 1556 1556 1557 1557 1558 1558 1558 1559 1560 1560 1561 1562 1563 1563 1564 1564 1565 1566 1567 1567 1568 1568 1568 1569 1569 1569 1569 1569 1568 1567 1567
1548 1550 1551 1553 1554 1554 1555 1555 1556 1557 1557 1558 1559 1559 1559 1560 1560 1560 1561 1561 1562 1563 1563 1564 1565 1566 1566 1567 1568 1568 1568 1569 1569 1569 1569 1569 1569 1569 1569 1569 1568 1567 1566
1551 1552 1553 1555 1556 1557 1558 1558 1559 1560 1560 1561 1561 1561 1562 1562 1562 1563 1563 1564 1565 1565 1566 1566 1567 1568 1568 1569 1569 1569 1570 1570 1570 1570 1570 1570 1570 1569 1569 1568 1568 1567 1566
1553 1554 1555 1557 1558 1559 1560 1561 1561 1562 1562 1563 1563 1564 1564 1564 1565 1565 1566 1566 1567 1567 1568 1568 1569 1569 1569 1570 1570 1570 1571 1571 1571 1571 1570 1570 1570 1569 1569 1568 1567 1566 1565
1555 1557 1558 1559 1560 1561 1562 1563 1564 1564 1565 1565 1565 1566 1566 1567 1567 1568 1568 1568 1568 1569 1569 1570 1570 1570 1570 1571 1571 1571 1571 1571 1571 1571 1570 1570 1570 1569 1568 1568 1567 1566 1564
1557 1558 1559 1561 1562 1563 1564 1565 1565 1566 1567 1567 1567 1568 1568 1568 1569 1569 1569 1569 1570 1570 1570 1570 1571 1571 1571 1571 1571 1571 1571 1571 1571 1570 1570 1569 1569 1568 1568 1567 1566 1565 1563
1559 1560 1561 1562 1563 1564 1565 1566 1566 1567 1568 1568 1569 1569 1569 1570 1570 1570 1571 1571 1571 1571 1571 1571 1571 1571 1571 1571 1571 1571 1571 1570 1570 1569 1569 1568 1568 1567 1566 1565 1564 1563 1562
1560 1561 1562 1563 1564 1565 1566 1566 1567 1568 1568 1569 1569 1570 1570 1570 1571 1571 1571 1571 1571 1571 1571 1570 1571 1571 1570 1570 1570 1570 1570 1569 1568 1567 1567 1567 1566 1566 1565 1564 1563 1561 1560
1560 1562 1563 1564 1564 1565 1566 1567 1567 1568 1569 1569 1569 1570 1570 1570 1571 1571 1571 1571 1571 1571 1570 1570 1570 1570 1569 1568 1568 1568 1568 1567 1566 1566 1565 1564 1564 1564 1563 1562 1561 1560 1558
1560 1562 1563 1564 1564 1565 1566 1567 1567 1568 1568 1569 1570 1570 1570 1570 1570 1570 1570 1570 1570 1570 1570 1569 1569 1569 1568 1568 1567 1567 1566 1565 1565 1564 1563 1562 1562 1561 1561 1560 1559 1557 1556
1560 1561 1562 1563 1564 1565 1566 1566 1567 1568 1568 1569 1569 1569 1569 1570 1570 1569 1569 1569 1569 1569 1569 1568 1568 1568 1567 1567 1566 1565 1564 1563 1562 1561 1561 1560 1559 1559 1558 1557 1556 1554 1553
1559 1561 1562 1562 1563 1564 1565 1565 1566 1567 1567 1568 1568 1568 1569 1569 1569 1569 1569 1568 1568 1568 1568 1567 1567 1566 1566 1565 1564 1563 1562 1561 1560 1559 1558 1558 1557 1556 1555 1554 1552 1551 1549